Dewpoint
63 67 69 69 70 69 70 70 69 69 69 68 69 70 70 70 69 69 66 65 66 65 64 64 63 65 67 67 66 66 66 67 67 67 67 67 65 63 65 67 66 64 62
60 67 69 69 69 69 70 70 70 70 70 68 68 69 69 69 68 67 66 65 64 64 64 64 64 64 65 66 65 66 66 67 67 67 67 66 66 64 64 66 66 66 66
64 68 69 69 68 70 70 70 69 68 70 69 69 68 68 67 66 66 66 65 64 64 65 65 64 64 64 64 64 65 66 66 66 67 67 67 65 64 66 66 66 66 66
64 67 68 69 68 68 69 70 69 69 70 70 69 68 68 68 67 67 66 65 65 65 65 66 67 67 66 65 64 64 65 66 67 66 66 66 66 66 66 66 65 65 64
63 65 66 67 69 68 68 70 70 68 68 70 70 69 68 68 68 66 67 67 66 65 65 65 67 67 67 66 65 66 66 66 66 66 67 67 67 66 65 64 63 64 64
50 54 64 65 68 69 69 68 70 69 68 68 69 69 68 68 67 67 68 67 67 66 65 64 66 67 66 66 66 65 65 65 65 66 66 66 66 65 63 63 62 62 62
44 52 53 65 68 68 68 68 67 68 68 67 69 68 68 68 68 68 67 67 67 68 66 65 65 66 66 66 64 66 66 65 64 64 65 65 65 63 62 62 61 60 60
41 45 53 56 64 67 67 66 66 66 67 68 67 68 68 68 67 68 67 67 67 67 66 65 64 64 65 65 63 66 65 64 63 63 63 62 63 61 61 61 60 60 58
46 43 45 53 58 63 65 67 66 66 66 67 68 67 67 67 67 68 68 67 67 67 66 65 64 64 65 65 64 65 63 62 62 62 62 62 62 60 61 60 61 60 59
53 51 49 53 57 60 62 65 67 65 65 66 67 67 66 66 67 68 68 67 67 67 66 65 64 64 65 65 66 64 62 61 60 60 61 63 61 60 60 62 62 63 62
43 54 55 54 55 58 61 62 63 66 65 65 66 66 66 66 66 66 66 66 66 66 65 64 64 65 65 65 64 62 60 59 59 59 61 62 60 59 63 63 62 63 63
38 43 55 55 55 57 60 60 61 64 65 65 66 66 66 66 66 65 64 65 64 64 63 63 64 65 65 64 62 60 58 58 58 59 60 60 58 59 63 62 63 62 62
38 42 51 55 55 56 57 58 59 61 65 65 65 65 66 66 65 63 63 63 64 63 62 62 64 63 62 61 58 58 58 57 58 58 59 59 57 60 62 62 61 61 62
38 40 44 55 55 55 57 57 57 61 64 65 65 65 65 64 63 62 62 62 63 62 61 61 63 62 61 60 58 57 57 57 57 58 59 58 57 61 62 61 61 60 61
39 41 43 53 55 55 55 56 56 59 61 61 65 65 64 63 62 62 61 61 62 61 59 60 61 60 60 59 57 57 56 56 56 57 57 55 59 60 62 60 60 59 59
40 41 45 53 55 54 54 55 55 57 58 58 60 59 59 61 62 61 60 60 61 60 59 59 59 59 60 58 56 56 56 56 55 55 55 58 61 62 60 56 60 58 57
40 43 48 53 55 54 53 53 54 55 56 57 57 57 58 58 58 60 60 59 60 59 58 58 58 58 57 56 55 55 55 54 53 53 54 57 59 59 60 60 59 56 54
43 44 50 55 55 54 53 52 52 53 54 54 57 58 57 57 58 59 59 58 60 58 58 58 58 57 55 54 54 54 54 53 53 52 52 54 55 56 57 57 56 56 53
50 49 48 53 54 53 53 52 51 51 51 52 52 54 55 56 56 58 59 57 59 57 57 57 57 55 52 52 53 53 53 52 52 52 51 52 53 54 55 54 54 52 52
51 50 50 52 53 53 53 52 51 51 51 52 52 53 54 55 58 58 59 58 59 57 56 56 54 52 50 52 52 52 52 52 52 51 51 52 52 53 53 53 53 52 52
49 50 51 52 52 52 51 50 50 49 51 51 52 53 53 54 57 59 59 58 59 57 55 54 52 48 49 51 49 48 47 47 51 51 51 51 51 50 50 50 51 52 54
48 50 51 52 52 51 51 51 50 49 49 50 52 54 54 54 55 58 58 57 59 58 55 52 50 47 46 50 49 46 46 45 46 46 48 50 50 49 48 48 48 49 50
47 49 51 52 52 52 51 51 51 50 50 50 51 52 54 53 54 57 57 57 58 58 55 51 48 46 47 46 48 45 41 42 44 43 45 46 48 47 47 46 46 47 47
48 49 50 52 52 53 52 51 50 49 48 49 50 52 53 55 54 55 56 57 58 57 55 51 47 46 46 44 44 43 41 41 41 40 42 43 45 45 44 43 43 44 46
49 50 51 51 52 52 53 52 50 49 50 49 50 50 51 53 54 54 54 55 55 53 54 51 47 46 45 43 44 41 42 42 43 40 40 41 42 43 42 41 41 42 43
48 51 52 51 52 51 52 52 51 50 50 49 49 49 50 52 53 54 53 53 53 52 51 49 46 45 45 44 43 41 41 40 41 41 41 41 40 43 44 43 43 43 43
Wind_Speed
4 11 11 11 13 11 9 12 12 13 12 12 11 14 18 19 20 19 19 18 18 17 17 15 15 14 15 16 16 16 17 16 17 15 13 13 18 17 15 14 14 13 14
6 11 10 12 11 11 11 13 14 14 14 13 12 13 15 17 17 17 18 19 17 18 17 16 15 15 15 16 16 16 16 14 14 14 12 17 16 16 15 13 14 14 14
11 10 8 11 11 10 11 13 12 13 14 14 15 15 16 16 16 17 17 18 18 17 17 16 16 16 15 15 16 16 15 14 13 12 12 12 12 15 14 16 17 18 17
10 10 8 9 11 12 11 13 14 14 15 15 16 16 16 17 17 17 18 17 17 16 17 15 14 15 16 16 16 16 15 14 11 10 8 8 8 15 18 18 17 15 16
7 8 9 10 12 12 13 13 14 15 16 16 15 15 15 16 18 17 18 18 18 17 16 15 13 13 14 16 15 15 15 10 11 9 9 9 13 19 20 17 15 14 13
8 5 1 13 15 13 13 15 15 16 17 17 17 16 16 16 17 18 18 17 19 18 18 17 14 11 11 13 13 12 10 11 13 11 12 16 13 19 17 14 13 12 11
7 5 4 6 9 14 15 15 17 17 17 18 17 18 18 17 17 18 18 19 19 19 19 16 14 12 10 13 12 10 12 17 15 13 13 13 14 17 14 13 12 11 11
8 5 3 3 4 6 16 17 18 19 19 18 18 17 17 18 18 17 17 21 21 20 18 16 14 12 10 13 11 15 16 17 15 14 12 12 15 13 12 12 12 12 12
6 4 1 2 2 4 4 14 19 20 20 20 19 19 19 18 15 18 19 22 22 20 18 16 14 13 12 12 12 17 17 18 16 13 12 12 14 12 11 11 12 13 13
5 5 5 2 1 2 3 5 11 21 22 21 20 19 18 18 17 22 20 19 21 19 18 17 15 13 12 13 16 20 18 17 14 12 11 12 11 10 11 11 11 11 13
8 9 7 6 4 4 3 2 5 8 21 23 21 20 19 14 16 18 19 17 16 17 17 18 16 14 13 13 18 20 15 9 12 9 10 15 12 12 11 16 17 15 15
10 12 12 10 8 6 4 3 3 5 8 13 14 15 14 14 15 15 19 18 16 17 18 18 18 14 14 13 15 15 12 10 11 9 9 16 14 15 13 18 18 17 16
11 9 12 14 10 9 7 4 4 4 6 9 13 15 14 13 13 12 13 14 13 17 15 16 16 16 16 15 13 13 13 9 10 9 12 14 15 15 18 16 17 16 15
8 14 13 14 13 10 7 5 4 5 7 7 10 14 14 13 14 13 13 16 14 14 14 15 13 16 18 15 17 15 13 10 10 11 13 14 12 15 17 17 17 16 15
11 13 16 12 15 12 9 6 5 5 6 5 7 13 14 15 16 14 14 16 15 14 14 15 16 16 19 17 14 15 13 13 11 11 14 14 14 17 18 18 15 16 14
12 14 14 12 15 12 11 8 6 6 6 5 7 7 7 7 12 17 16 17 16 16 14 14 17 16 16 15 15 13 14 13 12 14 13 11 7 17 15 15 16 15 14
12 13 12 11 13 14 12 10 8 7 6 5 4 3 6 3 4 9 15 18 18 16 16 14 14 14 16 13 15 14 13 14 14 15 14 11 10 13 16 14 15 15 15
10 12 11 9 15 15 14 11 9 9 9 9 7 8 8 7 8 4 11 18 18 17 18 17 15 16 16 15 14 13 13 11 15 14 13 12 10 10 11 13 11 14 14
9 10 13 13 17 17 12 9 7 7 10 12 12 11 12 13 14 13 14 13 21 21 20 18 15 18 18 15 15 14 13 12 14 12 14 12 9 9 8 13 11 13 13
11 11 12 13 14 12 10 7 4 6 9 11 12 12 13 13 15 17 17 16 15 21 21 19 20 14 18 18 15 14 11 9 11 14 14 11 11 11 12 12 10 10 12
12 9 7 10 13 13 7 6 7 12 9 12 12 13 14 14 17 20 18 22 21 19 25 24 24 23 15 19 19 12 9 5 7 10 13 12 10 9 11 11 10 7 7
12 9 8 11 11 12 10 5 6 6 9 11 11 12 13 15 16 19 20 22 24 18 19 25 25 19 11 21 18 12 8 3 3 3 7 12 13 10 10 10 10 9 8
11 10 9 10 11 13 13 9 9 5 4 6 12 10 12 13 16 19 19 21 27 18 20 25 27 24 22 12 26 11 7 7 10 3 8 9 12 12 11 11 11 10 9
13 9 10 9 13 15 14 15 17 17 17 14 14 12 10 11 14 15 19 18 19 18 17 20 23 23 26 24 11 8 9 11 7 7 3 10 11 13 14 12 12 11 11
11 8 9 11 14 12 12 19 20 18 14 12 11 13 12 10 9 15 19 19 17 17 14 17 22 23 25 20 20 10 9 7 7 6 9 9 6 11 13 14 15 13 12
10 5 8 12 16 11 11 14 20 17 15 15 16 16 15 13 11 9 18 17 19 21 13 18 18 23 24 20 15 18 17 9 9 6 4 8 14 7 11 12 13 14 14
Wind_Direction
224 189 175 172 172 170 178 164 155 144 145 141 133 134 133 136 136 136 136 135 135 133 132 127 127 125 117 115 115 113 112 109 103 103 99 122 116 113 106 95 113 103 105
202 191 195 182 169 173 174 179 166 156 151 156 154 140 141 143 142 143 143 141 142 139 136 136 133 130 127 124 119 117 114 114 110 100 91 109 111 113 116 113 111 114 113
164 184 205 187 183 181 184 180 185 166 161 159 160 157 155 158 159 156 152 151 148 145 137 139 138 138 131 128 125 123 118 114 112 110 101 108 114 120 118 115 102 95 94
159 180 200 209 200 199 189 187 190 185 174 173 168 164 164 164 163 161 160 158 152 149 141 133 131 135 135 134 131 124 119 112 103 109 118 119 117 129 115 100 92 89 80
122 174 202 220 219 213 197 190 197 199 186 181 178 170 171 173 171 172 171 165 160 151 140 142 134 135 137 134 134 131 129 105 109 111 125 118 118 113 99 93 89 91 94
120 114 37 232 219 219 214 198 197 204 200 188 187 181 181 184 185 183 178 169 161 153 145 146 150 147 142 131 129 131 149 121 106 102 103 112 105 102 98 97 101 101 102
162 170 92 54 225 227 220 217 205 204 205 203 193 190 189 193 197 200 183 178 166 152 148 150 153 158 147 129 122 123 125 132 117 102 99 99 106 103 102 105 106 103 100
172 180 124 58 29 247 242 221 216 209 207 208 208 205 198 204 204 201 195 176 159 155 155 156 160 162 156 139 126 123 124 121 116 112 105 99 102 107 106 109 107 104 103
216 201 224 74 352 335 303 244 223 217 213 211 209 213 213 209 202 192 174 167 159 163 161 162 167 170 162 141 139 125 118 118 119 118 114 111 115 111 111 115 113 110 113
232 245 232 203 217 262 304 313 257 225 218 216 213 211 216 212 205 190 167 167 165 165 164 164 170 176 173 148 141 130 127 123 122 122 120 116 123 122 124 126 131 128 132
240 243 241 231 232 233 240 282 309 269 230 219 217 213 211 208 206 196 164 168 171 169 168 167 171 174 168 154 141 134 129 131 122 124 129 126 131 129 144 148 108 106 110
274 247 237 230 223 234 215 241 274 285 257 225 211 208 198 189 180 171 169 171 175 171 171 173 170 157 142 144 144 133 130 133 122 125 133 128 133 147 141 123 114 103 105
278 276 235 237 227 220 219 214 242 271 254 240 213 199 184 173 171 168 167 166 176 174 171 173 166 144 144 144 147 140 136 134 130 134 144 137 146 156 133 130 120 112 101
271 278 278 228 226 229 217 208 213 232 237 227 221 188 174 173 174 174 176 170 174 175 181 169 160 153 149 153 150 145 142 142 143 151 139 135 165 160 144 127 130 126 115
279 280 275 230 215 217 217 204 197 199 201 188 218 198 186 183 184 179 181 172 177 175 181 172 161 158 153 157 154 149 148 143 149 152 139 158 174 177 146 139 137 129 125
279 284 283 236 206 202 215 205 190 182 170 138 134 121 104 159 194 186 182 179 181 182 178 178 161 158 156 156 155 154 153 150 160 147 147 138 149 150 140 141 144 135 135
272 278 273 236 202 206 211 209 196 192 194 190 176 177 143 202 105 213 191 184 185 183 173 163 155 149 153 157 153 147 148 155 155 150 153 128 127 128 126 143 133 136 137
275 270 274 220 204 210 213 208 206 211 220 229 227 212 221 204 222 220 214 194 185 178 175 164 164 162 161 160 149 149 147 158 152 154 146 136 140 136 141 143 151 148 152
272 275 267 229 216 207 208 209 219 233 235 240 241 235 228 222 220 210 205 209 186 178 176 166 166 165 159 153 147 146 143 152 152 154 149 151 151 145 154 154 161 161 162
279 270 257 241 215 198 194 192 223 252 248 237 236 236 236 225 213 206 199 199 207 187 171 165 159 155 158 151 140 133 134 146 151 156 154 149 147 140 132 136 150 164 166
290 284 262 228 211 184 181 197 233 237 230 243 235 226 231 226 220 207 197 183 194 203 174 162 156 149 150 144 128 111 96 94 136 153 153 152 152 143 137 139 143 145 154
295 282 241 222 199 196 208 197 198 233 241 237 233 234 220 219 217 212 201 189 179 189 195 165 159 155 150 168 154 136 151 136 174 156 164 168 168 162 163 164 164 162 153
299 270 242 225 209 210 219 220 209 205 244 245 237 238 213 201 203 211 201 195 175 179 195 177 162 166 160 164 158 150 147 176 152 170 203 195 182 183 185 183 185 180 171
296 270 241 222 218 221 214 221 218 215 218 226 227 219 211 201 192 192 189 185 178 163 189 198 164 166 160 162 150 139 131 138 162 163 198 209 201 195 194 196 194 193 188
287 267 241 240 231 226 227 229 228 220 218 225 220 229 223 232 204 177 170 168 161 143 171 201 176 163 167 163 166 141 127 118 118 143 180 194 207 213 204 197 197 198 198
294 277 244 249 244 245 253 262 226 226 214 212 215 216 228 216 220 220 166 163 155 141 159 189 176 164 166 170 159 154 152 155 165 150 134 169 189 206 208 209 207 205 201